This demonstration page uses our WeatherBlox Daily Observations layout. Learn more.

Left ArrowRight Arrow

Hourly Observations for August 4, 2022

Temp ( °F °C ) Dew Point ( °F °C ) Humidity (%) Winds ( mph kmh ) Pressure ( in mb ) Visibility ( mi km ) Precip ( " mm )
12:56 am 00:56 Clear 78 25.4 63 17.3 61 61 NNE 5 7 29.96 1015 10 16 0.00 0.00
1:56 am 01:56 Clear 75 23.7 62 16.7 65 65 NE 6 9 29.97 1015 10 16 0.00 0.00
2:56 am 02:56 Clear 72 22.1 60 15.4 66 66 NE 8 13 29.98 1015 10 16 0.00 0.00
3:56 am 03:56 Clear 69 20.8 60 15.3 71 71 ENE 7 11 29.99 1016 10 16 0.00 0.00
4:56 am 04:56 Clear 67 19.5 59 15.1 76 76 E 5 7 30.01 1016 10 16 0.00 0.00
5:56 am 05:56 Clear 66 19 59 15.1 78 78 NE 6 9 30.03 1017 10 16 0.00 0.00
6:56 am 06:56 Sunny 66 18.9 59 15 78 78 ENE 7 11 30.04 1017 10 16 0.00 0.00
7:56 am 07:56 Sunny 69 20.5 60 15.3 72 72 ENE 6 9 30.04 1017 10 16 0.00 0.00
8:56 am 08:56 Sunny 72 22.3 61 15.9 67 67 E 5 7 30.05 1018 10 16 0.00 0.00
9:56 am 09:56 Sunny 76 24.6 60 15.8 58 58 NE 3 6 30.04 1017 10 16 0.00 0.00
10:56 am 10:56 Sunny 80 26.8 59 15.2 49 49 ESE 3 6 30.06 1018 10 16 0.00 0.00
11:56 am 11:56 Sunny 83 28.1 62 16.4 49 49 ENE 5 7 30.06 1018 10 16 0.00 0.00
12:56 pm 12:56 Sunny 86 30 61 16 43 43 ENE 7 11 29.98 1015 10 16 0.00 0.00
1:56 pm 13:56 Mostly Sunny 88 31 61 16 40 40 NNE 7 11 29.97 1015 10 16 0.00 0.00
2:56 pm 14:56 Sunny 91 33 61 16 36 36 NNE 7 11 29.96 1015 10 16 0.00 0.00
3:56 pm 15:56 Sunny 91 32.6 63 17.2 40 40 E 6 9 30.01 1016 10 16 0.00 0.00
4:56 pm 16:56 Sunny 91 32.5 59 15 35 35 E 8 13 30.00 1016 10 16 0.00 0.00
5:56 pm 17:56 Sunny 90 32 58 14.6 35 35 ENE 8 13 30.00 1016 10 16 0.00 0.00
6:56 pm 18:56 Sunny 87 30.3 61 15.9 42 42 E 7 11 29.99 1016 10 16 0.00 0.00
7:56 pm 19:56 Sunny 83 28.6 62 16.8 49 49 E 6 9 29.99 1016 10 16 0.00 0.00
8:56 pm 20:56 Clear 80 26.8 62 16.4 53 53 E 3 6 30.00 1016 10 16 0.00 0.00
9:56 pm 21:56 Clear 78 25.8 62 16.6 57 57 Calm 30.01 1016 9 14 0.00 0.00
10:56 pm 22:56 Clear 77 24.9 61 16 58 58 E 3 6 30.03 1017 10 16 0.00 0.00
11:56 pm 23:56 Clear 75 23.7 61 16 62 62 Calm 30.04 1017 10 16 0.00 0.00

Powered by AerisWeather